This is the latest recevied weather packets stored in our database for station/object OH2TH. If no packets are shown the sender has not sent any weather packets the latest 10 day(s).
| Time | Temp. | Humidity | Pressure | Rain* | Wind** | Luminosity | Snow |
|---|---|---|---|---|---|---|---|
| 1778105703 | 2.22° C | 78% | 101 hPa | - | - | - | - |
| 1778104802 | 2.22° C | 80% | 101 hPa | - | - | - | - |
| 1778103901 | 2.22° C | 77% | 101 hPa | - | - | - | - |
| 1778103005 | 2.22° C | 76% | 101 hPa | - | - | - | - |
| 1778102104 | 3.33° C | 76% | 101 hPa | - | - | - | - |
| 1778101203 | 3.33° C | 75% | 101 hPa | - | - | - | - |
| 1778100302 | 3.33° C | 72% | 101 hPa | - | - | - | - |
| 1778099402 | 3.89° C | 72% | 101 hPa | - | - | - | - |
| 1778098500 | 3.89° C | 72% | 101 hPa | - | - | - | - |
| 1778097605 | 3.89° C | 69% | 101 hPa | - | - | - | - |
| 1778096704 | 5° C | 66% | 101 hPa | - | - | - | - |
| 1778095803 | 5° C | 64% | 101 hPa | - | - | - | - |
| 1778094902 | 6.11° C | 61% | 101 hPa | - | - | - | - |
| 1778094002 | 7.22° C | 60% | 101 hPa | - | - | - | - |
| 1778093101 | 7.22° C | 58% | 101 hPa | - | - | - | - |
| 1778092205 | 8.33° C | 55% | 101 hPa | - | - | - | - |
| 1778091304 | 8.89° C | 50% | 101 hPa | - | - | - | - |
| 1778090403 | 8.89° C | 46% | 101 hPa | - | - | - | - |
| 1778089503 | 8.89° C | 44% | 101 hPa | - | - | - | - |
| 1778088603 | 10° C | 43% | 101 hPa | - | - | - | - |
| 1778087703 | 10° C | 42% | 101 hPa | - | - | - | - |
| 1778086802 | 10° C | 41% | 101 hPa | - | - | - | - |
| 1778085902 | 10° C | 42% | 101 hPa | - | - | - | - |
| 1778085002 | 10.56° C | 41% | 101 hPa | - | - | - | - |
| 1778084102 | 10.56° C | 41% | 101 hPa | - | - | - | - |
* Rain since midnight (hover to see other rain measurements)
** Current wind speed in m/s (hover to see current wind gust speed)